GW5685 Weather Reports


time (UTC)temp
C
wind
direction
speed
KPH
gust
KPH
rain 1hr
cm
rain 24hr
cm
rain mn
cm
humidity
%
barometer
mb
20260510193757 25 119 3.2 3.2 0.00 0.03 0.03 83 1017.7
20260510193252 25 327 1.6 4.8 0.00 0.03 0.03 82 1018.0
20260510192748 25 338 1.6 4.8 0.00 0.03 0.03 82 1017.8
20260510192243 25 315 6.4 11.3 0.00 0.03 0.03 82 1017.8
20260510191740 25 327 3.2 11.3 0.00 0.03 0.03 84 1017.5
20260510191236 25 357 3.2 12.9 0.00 0.03 0.03 86 1017.7
20260510190734 25 322 8.0 12.9 0.00 0.03 0.03 83 1017.6
20260510190231 25 341 9.7 11.3 0.00 0.03 0.03 82 1017.7
20260510185727 26 296 11.3 17.7 0.00 0.03 0.03 78 1017.3
20260510185226 28 15 12.9 25.7 0.00 0.03 0.03 69 1017.3
20260510184722 31 294 14.5 20.9 0.00 0.03 0.03 58 1017.0
20260510184219 31 294 16.1 17.7 0.00 0.03 0.03 54 1016.9
20260510183714 32 279 14.5 20.9 0.00 0.03 0.03 53 1017.0
20260510183208 32 286 6.4 22.5 0.00 0.03 0.03 56 1017.1
20260510182705 31 162 6.4 6.4 0.00 0.03 0.03 55 1017.0
20260510182201 31 294 6.4 11.3 0.00 0.03 0.03 55 1017.2
20260510181658 31 248 8.0 12.9 0.00 0.03 0.03 62 1017.3
20260510181155 31 142 6.4 6.4 0.00 0.03 0.03 55 1017.2
20260510180651 31 257 12.9 14.5 0.00 0.03 0.03 56 1017.3
20260510180149 31 190 9.7 11.3 0.00 0.03 0.03 56 1017.4
20260510175644 31 254 11.3 16.1 0.00 0.03 0.03 56 1017.3
20260510175140 31 236 4.8 6.4 0.00 0.03 0.03 54 1017.6
20260510174638 31 254 9.7 12.9 0.00 0.03 0.03 55 1017.4
20260510174136 31 232 6.4 9.7 0.00 0.03 0.03 58 1017.7
20260510173631 31 303 3.2 9.7 0.00 0.03 0.03 57 1017.7
20260510173127 31 309 9.7 14.5 0.00 0.03 0.03 57 1017.9
20260510172623 31 295 3.2 9.7 0.00 0.03 0.03 53 1017.9
20260510172119 31 260 9.7 20.9 0.00 0.03 0.03 60 1018.1
20260510171616 30 259 4.8 16.1 0.00 0.03 0.03 60 1018.2
20260510171114 30 189 11.3 17.7 0.00 0.03 0.03 62 1018.2
20260510170610 30 177 11.3 20.9 0.00 0.03 0.03 62 1018.2
20260510170107 30 189 11.3 16.1 0.00 0.03 0.03 62 1018.1
20260510165603 30 197 14.5 20.9 0.00 0.03 0.03 63 1018.2
20260510165058 30 256 8.0 16.1 0.00 0.03 0.03 65 1018.3
20260510164556 30 275 11.3 12.9 0.00 0.03 0.03 63 1018.5
20260510164052 30 221 8.0 16.1 0.00 0.03 0.03 66 1018.7
20260510163548 30 229 9.7 11.3 0.00 0.03 0.03 64 1018.9
20260510163044 30 241 0.0 1.6 0.00 0.03 0.03 64 1018.8
20260510162539 30 271 4.8 6.4 0.00 0.03 0.03 65 1018.8
20260510162036 30 248 1.6 3.2 0.00 0.03 0.03 65 1018.9
20260510161526 29 246 1.6 6.4 0.00 0.03 0.03 66 1018.9
20260510161023 30 247 9.7 11.3 0.00 0.03 0.03 67 1018.8
20260510160520 29 155 3.2 6.4 0.00 0.03 0.03 68 1018.9
20260510160019 29 149 3.2 4.8 0.00 0.03 0.03 70 1019.0
20260510155516 29 177 4.8 4.8 0.00 0.03 0.03 70 1018.9
20260510155013 29 160 9.7 11.3 0.00 0.03 0.03 71 1019.0
20260510154508 28 156 9.7 9.7 0.00 0.03 0.03 71 1019.0
20260510154008 29 209 6.4 9.7 0.00 0.03 0.03 72 1019.2
20260510153504 28 210 3.2 4.8 0.00 0.03 0.03 72 1019.1
20260510153001 28 218 4.8 6.4 0.00 0.03 0.03 72 1019.2
20260510152458 28 198 6.4 6.4 0.00 0.03 0.03 73 1019.1
20260510151954 28 244 3.2 3.2 0.00 0.03 0.03 72 1019.0
20260510151451 28 266 0.0 3.2 0.00 0.03 0.03 72 1018.8
20260510150948 28 281 4.8 4.8 0.00 0.03 0.03 74 1019.1
20260510150444 28 281 3.2 11.3 0.00 0.03 0.03 73 1019.0
20260510145939 28 233 4.8 11.3 0.00 0.03 0.03 73 1018.8
20260510145431 28 260 4.8 11.3 0.00 0.03 0.03 73 1018.8
20260510144927 28 194 9.7 12.9 0.00 0.03 0.03 72 1018.9
20260510144425 27 263 9.7 11.3 0.00 0.03 0.03 72 1018.8
20260510143924 27 226 9.7 14.5 0.00 0.03 0.03 74 1018.8
20260510143421 27 240 8.0 9.7 0.00 0.03 0.03 74 1018.7
20260510142918 27 250 9.7 11.3 0.00 0.03 0.03 75 1018.9
20260510142415 27 259 9.7 14.5 0.00 0.03 0.03 75 1018.8
20260510141911 27 218 6.4 6.4 0.00 0.03 0.03 77 1018.8
20260510141409 27 221 3.2 4.8 0.00 0.03 0.03 79 1019.0
20260510140906 27 266 3.2 4.8 0.00 0.03 0.03 80 1018.9
20260510140402 26 230 1.6 3.2 0.00 0.03 0.03 82 1018.8
20260510135900 26 236 3.2 4.8 0.00 0.03 0.03 83 1018.7
20260510135357 26 231 4.8 6.4 0.00 0.03 0.03 85 1018.5
20260510134855 26 223 6.4 6.4 0.00 0.03 0.03 86 1018.5
20260510134351 26 225 6.4 6.4 0.00 0.03 0.03 85 1018.5
20260510133847 26 217 3.2 9.7 0.00 0.03 0.03 85 1018.3
20260510133343 26 211 4.8 9.7 0.00 0.03 0.03 87 1018.5
20260510132839 25 218 6.4 6.4 0.00 0.03 0.03 88 1018.3
20260510132337 25 205 6.4 6.4 0.00 0.03 0.03 89 1018.0
20260510131834 25 240 3.2 9.7 0.00 0.03 0.03 90 1018.4
20260510131332 25 206 8.0 9.7 0.00 0.03 0.03 90 1018.4
20260510130828 25 228 4.8 6.4 0.00 0.03 0.03 90 1018.4
20260510130325 25 223 9.7 11.3 0.00 0.03 0.03 92 1018.5
20260510125821 25 241 6.4 6.4 0.00 0.03 0.03 93 1018.3
20260510125317 24 234 3.2 6.4 0.00 0.03 0.03 93 1018.2
20260510124815 24 236 1.6 6.4 0.00 0.03 0.03 94 1018.4
20260510124312 24 216 6.4 9.7 0.00 0.03 0.03 94 1018.3
20260510123807 24 209 6.4 6.4 0.00 0.03 0.03 95 1018.0
20260510123303 24 209 4.8 4.8 0.00 0.03 0.03 96 1018.0
20260510122759 23 223 3.2 4.8 0.00 0.03 0.03 96 1018.1
20260510122255 23 221 3.2 3.2 0.00 0.03 0.03 96 1018.1
20260510121752 23 251 1.6 3.2 0.00 0.03 0.03 97 1017.9
20260510121250 23 250 1.6 3.2 0.00 0.03 0.03 97 1018.0
20260510120747 23 279 1.6 1.6 0.00 0.03 0.03 97 1017.8
20260510120243 23 255 1.6 3.2 0.00 0.03 0.03 97 1017.7
20260510115739 23 255 0.0 1.6 0.00 0.03 0.03 97 1017.7
20260510115238 23 258 1.6 3.2 0.00 0.03 0.03 97 1017.5
20260510114732 23 338 0.0 1.6 0.00 0.03 0.03 98 1017.6
20260510114230 23 19 0.0 0.0 0.00 0.03 0.03 98 1017.6
20260510113725 23 19 0.0 1.6 0.00 0.03 0.03 98 1017.4
20260510113222 22 19 0.0 0.0 0.00 0.03 0.03 98 1017.1
20260510112718 22 19 0.0 1.6 0.00 0.03 0.03 97 1016.9
20260510112216 22 19 0.0 0.0 0.00 0.03 0.03 97 1017.1
20260510111711 22 19 0.0 0.0 0.00 0.03 0.03 97 1017.2
20260510111209 22 19 0.0 0.0 0.00 0.03 0.03 97 1016.9
20260510110708 22 19 0.0 0.0 0.00 0.03 0.03 97 1017.1
20260510110206 22 19 0.0 0.0 0.13 0.03 0.03 97 1017.0
20260510105701 22 19 0.0 1.6 0.13 0.03 0.03 97 1016.7
20260510105200 22 19 0.0 0.0 0.00 0.00 0.00 97 1016.8
20260510104657 22 19 1.6 1.6 0.00 0.00 0.00 97 1016.7
20260510104154 22 20 0.0 1.6 0.00 0.00 0.00 97 1016.4
20260510103651 22 357 1.6 3.2 0.00 0.00 0.00 97 1016.5
20260510103149 22 103 0.0 1.6 0.00 0.00 0.00 97 1016.5
20260510102648 23 105 0.0 1.6 0.00 0.00 0.00 97 1016.4
20260510102145 23 117 1.6 3.2 0.00 0.00 0.00 97 1016.4
20260510101642 23 156 1.6 3.2 0.00 0.00 0.00 97 1016.2
20260510101140 22 171 3.2 4.8 0.00 0.00 0.00 98 1016.3
20260510100636 22 108 1.6 1.6 0.00 0.00 0.00 97 1016.0
20260510100134 22 70 0.0 1.6 0.00 0.00 0.00 97 1016.1
20260510095629 22 69 0.0 0.0 0.00 0.00 0.00 97 1016.0
20260510095124 22 69 0.0 1.6 0.00 0.00 0.00 97 1015.9
20260510094623 22 69 0.0 0.0 0.00 0.00 0.00 97 1016.0
20260510094119 22 69 0.0 1.6 0.00 0.00 0.00 96 1015.9
20260510093615 23 74 1.6 1.6 0.00 0.00 0.00 97 1015.7
20260510093112 23 128 0.0 1.6 0.00 0.00 0.00 97 1015.8
20260510092609 23 196 3.2 3.2 0.00 0.00 0.00 97 1015.8
20260510092108 23 150 0.0 3.2 0.00 0.00 0.00 97 1015.8
20260510091606 23 128 0.0 1.6 0.00 0.00 0.00 97 1015.8
20260510091102 23 113 0.0 1.6 0.00 0.00 0.00 97 1015.7
20260510090559 23 112 0.0 0.0 0.00 0.00 0.00 97 1015.8
20260510090054 23 112 0.0 1.6 0.00 0.00 0.00 97 1015.6
20260510085549 23 131 1.6 4.8 0.00 0.00 0.00 97 1015.5
20260510085046 23 194 6.4 6.4 0.00 0.00 0.00 97 1015.5
20260510084542 23 183 6.4 9.7 0.00 0.00 0.00 97 1015.3
20260510084039 23 150 6.4 6.4 0.00 0.00 0.00 97 1015.5
20260510083536 23 123 4.8 6.4 0.00 0.00 0.00 97 1015.1
20260510083032 23 142 6.4 11.3 0.00 0.00 0.00 97 1015.4
20260510082529 23 145 6.4 9.7 0.00 0.00 0.00 97 1015.5
20260510082024 23 143 6.4 6.4 0.00 0.00 0.00 97 1015.5
20260510081519 23 125 6.4 6.4 0.00 0.00 0.00 97 1015.7
20260510081016 23 146 4.8 4.8 0.00 0.00 0.00 97 1015.7
20260510080514 23 141 4.8 4.8 0.00 0.00 0.00 97 1015.7
20260510080012 23 147 0.0 3.2 0.00 0.00 0.00 97 1015.5
20260510075509 23 184 6.4 6.4 0.00 0.00 0.00 97 1015.7
20260510075006 22 179 3.2 4.8 0.00 0.00 0.00 97 1015.6
20260510074504 22 143 1.6 3.2 0.00 0.00 0.00 97 1015.8
20260510073959 22 111 3.2 3.2 0.00 0.00 0.00 97 1015.7
20260510073454 22 140 1.6 3.2 0.00 0.00 0.00 97 1015.6
20260510072951 22 140 1.6 3.2 0.00 0.00 0.00 96 1015.9
20260510072448 22 131 3.2 3.2 0.00 0.00 0.00 96 1015.8
20260510071944 23 161 4.8 4.8 0.00 0.00 0.00 96 1015.7
20260510071440 22 146 0.0 1.6 0.00 0.00 0.00 96 1015.9
20260510070938 22 133 1.6 3.2 0.00 0.00 0.00 96 1015.9
20260510070436 22 134 3.2 3.2 0.00 0.00 0.00 96 1015.8
20260510065931 22 193 3.2 3.2 0.00 0.00 0.00 97 1015.8
20260510065428 22 133 0.0 0.0 0.00 0.00 0.00 96 1015.7
20260510064924 22 123 1.6 3.2 0.00 0.00 0.00 96 1016.0
20260510064422 23 123 1.6 3.2 0.00 0.00 0.00 96 1016.1
20260510063918 22 222 3.2 4.8 0.00 0.00 0.00 97 1016.4
20260510063414 22 141 0.0 0.0 0.00 0.00 0.00 96 1016.3
20260510062913 22 141 0.0 1.6 0.00 0.00 0.00 96 1016.2
20260510062408 22 141 0.0 0.0 0.00 0.00 0.00 96 1016.3
20260510061903 22 141 0.0 1.6 0.00 0.00 0.00 96 1016.4
20260510061400 22 141 0.0 0.0 0.00 0.00 0.00 96 1016.3
20260510060855 22 141 0.0 0.0 0.00 0.00 0.00 96 1016.5
20260510060353 22 141 0.0 0.0 0.00 0.00 0.00 96 1016.7
20260510055849 22 141 0.0 0.0 0.00 0.00 0.00 96 1016.6
20260510055349 22 141 0.0 0.0 0.00 0.00 0.00 96 1016.9
20260510054848 22 141 0.0 1.6 0.00 0.00 0.00 96 1016.7
20260510054344 22 141 0.0 1.6 0.00 0.00 0.00 96 1016.7
20260510053839 22 142 0.0 1.6 0.00 0.00 0.00 96 1016.8
20260510053334 22 141 0.0 0.0 0.00 0.00 0.00 96 1017.0
20260510052831 22 141 0.0 0.0 0.00 0.00 0.00 96 1016.9
20260510052327 22 141 1.6 3.2 0.00 0.00 0.00 96 1016.9
20260510051823 22 144 0.0 0.0 0.00 0.00 0.00 96 1017.1
20260510051320 23 176 0.0 0.0 0.00 0.00 0.00 97 1017.1
20260510050817 23 176 0.0 3.2 0.00 0.00 0.00 97 1017.0
20260510050314 22 118 0.0 0.0 0.00 0.00 0.00 97 1017.1
20260510045811 22 111 0.0 0.0 0.00 0.00 0.00 97 1017.3
20260510045307 22 97 0.0 1.6 0.00 0.00 0.00 97 1016.9
20260510044805 22 96 0.0 1.6 0.00 0.00 0.00 97 1017.0
20260510044302 22 96 0.0 0.0 0.00 0.00 0.00 97 1017.3
20260510043758 22 96 1.6 3.2 0.00 0.00 0.00 97 1017.4
20260510043249 22 95 0.0 1.6 0.00 0.00 0.00 97 1017.1
20260510042746 22 95 0.0 0.0 0.00 0.00 0.00 97 1017.5
20260510042241 22 94 0.0 0.0 0.00 0.00 0.00 97 1017.5
20260510041738 22 95 0.0 0.0 0.00 0.00 0.00 97 1017.1
20260510041236 22 94 1.6 1.6 0.00 0.00 0.00 97 1017.4
20260510040733 22 95 0.0 0.0 0.00 0.00 0.00 97 1017.2
20260510040229 22 94 0.0 1.6 0.00 0.00 0.00 97 1017.4
20260510035724 22 95 0.0 1.6 0.00 0.28 0.28 97 1017.5
20260510035221 22 95 0.0 1.6 0.00 0.28 0.28 97 1017.4
20260510034716 22 95 0.0 1.6 0.00 0.28 0.28 97 1017.4
20260510034215 22 102 0.0 0.0 0.00 0.28 0.28 97 1017.4
20260510033710 22 102 0.0 0.0 0.00 0.28 0.28 97 1017.2
20260510033209 22 102 0.0 0.0 0.00 0.28 0.28 97 1017.2
20260510032705 22 102 0.0 0.0 0.00 0.28 0.28 97 1017.2
20260510032200 22 102 0.0 0.0 0.00 0.28 0.28 96 1017.1
20260510031654 22 102 0.0 0.0 0.00 0.28 0.28 97 1017.4
20260510031152 22 102 0.0 1.6 0.00 0.28 0.28 96 1017.3
20260510030646 23 103 0.0 0.0 0.00 0.28 0.28 96 1017.4
20260510030144 23 103 0.0 0.0 0.00 0.28 0.28 96 1017.3
20260510025641 23 103 0.0 1.6 0.00 0.28 0.28 96 1017.2
20260510025138 23 134 1.6 3.2 0.00 0.28 0.28 96 1017.3
20260510024636 23 149 3.2 3.2 0.00 0.28 0.28 96 1017.3
20260510024132 23 134 0.0 0.0 0.00 0.28 0.28 96 1017.0
20260510023628 23 134 0.0 0.0 0.00 0.28 0.28 96 1016.9
20260510023126 23 145 0.0 0.0 0.00 0.28 0.28 96 1017.2
20260510022625 23 134 0.0 0.0 0.00 0.28 0.28 96 1017.0
20260510022121 23 139 0.0 0.0 0.00 0.28 0.28 96 1017.0
20260510021616 23 139 0.0 0.0 0.00 0.28 0.28 96 1016.9
20260510021114 23 134 0.0 0.0 0.00 0.28 0.28 96 1017.2
20260510020608 23 97 0.0 0.0 0.00 0.28 0.28 96 1017.1
20260510020104 23 347 0.0 0.0 0.00 0.28 0.28 96 1016.9
20260510015600 23 347 0.0 0.0 0.00 0.28 0.28 96 1016.9
20260510015056 23 347 0.0 0.0 0.00 0.28 0.28 96 1016.6
20260510014552 23 347 0.0 0.0 0.00 0.28 0.28 96 1016.7
20260510014050 23 346 0.0 0.0 0.00 0.28 0.28 95 1016.7
20260510013544 23 346 0.0 0.0 0.00 0.28 0.28 95 1016.6
20260510013040 23 347 0.0 0.0 0.00 0.28 0.28 95 1016.4
20260510012534 23 347 0.0 0.0 0.00 0.28 0.28 95 1016.6
20260510012031 23 346 0.0 0.0 0.00 0.28 0.28 95 1016.5
20260510011530 23 346 0.0 0.0 0.00 0.28 0.28 95 1016.5
20260510011026 23 346 0.0 0.0 0.00 0.28 0.28 95 1016.5
20260510010523 23 346 0.0 0.0 0.00 0.28 0.28 95 1016.3
20260510010020 23 347 0.0 0.0 0.00 0.28 0.28 95 1016.4
20260510005516 23 346 0.0 0.0 0.00 0.28 0.28 95 1016.4
20260510005014 23 347 0.0 0.0 0.00 0.28 0.28 94 1016.4
20260510004511 23 347 0.0 0.0 0.00 0.28 0.28 94 1016.2
20260510004009 23 347 0.0 0.0 0.00 0.28 0.28 94 1016.2
20260510003505 23 346 0.0 0.0 0.00 0.28 0.28 94 1016.2
20260510003001 23 347 0.0 0.0 0.00 0.28 0.28 94 1016.0
20260510002457 23 346 0.0 0.0 0.00 0.28 0.28 94 1016.2
20260510001953 23 346 0.0 0.0 0.00 0.28 0.28 94 1016.1
20260510001451 23 346 0.0 0.0 0.00 0.28 0.28 94 1015.8
20260510000949 23 346 0.0 0.0 0.00 0.28 0.28 93 1015.8
20260510000444 23 346 0.0 0.0 0.00 0.28 0.28 93 1015.6
20260509235941 23 346 0.0 0.0 0.00 0.28 0.28 92 1015.4
20260509235438 23 346 0.0 1.6 0.00 0.28 0.28 92 1015.7
20260509234934 23 346 0.0 0.0 0.00 0.28 0.28 93 1015.3
20260509234431 23 346 0.0 0.0 0.00 0.28 0.28 93 1015.6
20260509233929 23 346 0.0 0.0 0.00 0.28 0.28 92 1015.5
20260509233426 23 346 0.0 0.0 0.00 0.28 0.28 92 1015.4
20260509232922 23 346 0.0 0.0 0.00 0.28 0.28 92 1015.2
20260509232420 24 347 0.0 1.6 0.00 0.28 0.28 91 1015.3
20260509231915 24 308 1.6 3.2 0.00 0.28 0.28 92 1015.4
20260509231412 24 336 0.0 1.6 0.00 0.28 0.28 91 1015.2
20260509230911 24 36 0.0 0.0 0.00 0.28 0.28 92 1015.2
20260509230407 24 36 0.0 0.0 0.00 0.28 0.28 91 1015.3
20260509225903 24 112 0.0 1.6 0.00 0.28 0.28 92 1015.2
20260509225400 24 105 0.0 1.6 0.00 0.28 0.28 91 1014.9
20260509224855 24 333 1.6 4.8 0.00 0.28 0.28 90 1015.0
20260509224351 24 301 1.6 3.2 0.00 0.28 0.28 90 1015.1
20260509223849 24 42 0.0 3.2 0.00 0.28 0.28 91 1015.1
20260509223345 24 338 3.2 4.8 0.00 0.28 0.28 90 1015.0
20260509222843 24 92 0.0 1.6 0.00 0.28 0.28 90 1015.1
20260509222342 24 304 0.0 3.2 0.00 0.28 0.28 90 1015.1
20260509221838 24 285 3.2 3.2 0.00 0.28 0.28 91 1014.9
20260509221337 24 318 0.0 1.6 0.00 0.28 0.28 92 1015.0
20260509220836 24 324 1.6 4.8 0.00 0.28 0.28 91 1014.9
20260509220333 24 32 3.2 3.2 0.18 0.28 0.28 91 1014.9
20260509215828 24 118 0.0 1.6 0.18 0.28 0.28 90 1015.2
20260509215325 25 10 0.0 1.6 0.00 0.25 0.25 89 1015.3
20260509214822 25 36 1.6 1.6 0.00 0.25 0.25 89 1015.1
20260509214319 25 294 1.6 3.2 0.00 0.25 0.25 88 1015.0
20260509213817 25 22 3.2 4.8 0.00 0.25 0.25 86 1015.1
20260509213312 26 144 0.0 1.6 0.00 0.25 0.25 87 1015.0
20260509212810 26 319 0.0 3.2 0.00 0.25 0.25 86 1014.6
20260509212307 26 296 1.6 3.2 0.00 0.25 0.25 86 1014.3
20260509211802 25 15 1.6 1.6 0.00 0.25 0.25 87 1014.5
20260509211259 25 342 0.0 3.2 0.18 0.25 0.25 88 1014.7
20260509210755 25 305 1.6 3.2 0.61 0.25 0.25 87 1014.5
20260509210253 25 175 0.0 1.6 1.02 0.23 0.23 86 1014.5
20260509205753 26 113 0.0 1.6 0.71 0.13 0.13 82 1014.6
20260509205247 26 321 1.6 6.4 0.30 0.05 0.05 77 1014.6
20260509204743 27 341 6.4 11.3 0.00 0.00 0.00 72 1014.4
20260509204240 27 335 3.2 6.4 0.00 0.00 0.00 70 1014.2
20260509203736 27 311 6.4 9.7 0.00 0.00 0.00 71 1014.4
20260509203234 28 8 4.8 9.7 0.00 0.00 0.00 71 1014.1
20260509202730 28 301 8.0 9.7 0.00 0.00 0.00 69 1014.1
20260509202226 28 15 0.0 11.3 0.00 0.00 0.00 69 1014.1
20260509201720 28 36 6.4 14.5 0.00 0.00 0.00 67 1014.3
20260509201218 28 336 8.0 11.3 0.00 0.00 0.00 67 1014.1
20260509200714 28 306 4.8 11.3 0.00 0.00 0.00 67 1013.9
20260509200209 30 332 8.0 17.7 0.00 0.00 0.00 64 1013.7
20260509195706 31 263 12.9 29.0 0.00 0.00 0.00 58 1013.7
20260509195201 31 244 6.4 9.7 0.00 0.00 0.00 55 1013.5
20260509194700 31 283 6.4 16.1 0.00 0.00 0.00 55 1013.8